period_start,C,m1,H,J0,J1,J2,J3,J4,J5,JA,JB,JC,JD,JJ,JK,JN,#
2018-03-04 00:04:31,0.23,0.41,0.00,20.83,24.04,27.29,14.11,47.73,1020.52,2040.96,3325.92,2984.26,3429.74,600.07,602.80,1.82,0000 0000 0000 0000 000000
2018-03-04 00:09:32,0.23,0.42,0.00,20.87,24.05,27.29,14.03,47.72,1020.52,2040.97,3321.11,2980.80,3425.71,599.83,602.53,1.87,0000 0000 0000 0000 000000
2018-03-04 00:14:33,0.24,0.43,0.00,20.86,24.05,27.28,14.05,47.71,1020.52,2040.98,3316.28,2977.34,3421.63,599.92,602.50,1.92,0000 0000 0000 0000 000000
2018-03-04 00:19:34,0.24,0.44,0.00,20.89,24.05,27.29,14.12,47.76,1020.58,2040.97,3311.28,2973.72,3417.46,600.13,602.79,1.97,0000 0000 0000 0000 000000
2018-03-04 00:24:36,0.23,0.45,0.00,20.90,24.05,27.28,14.01,47.58,1020.74,2040.94,3306.43,2970.19,3413.35,599.58,602.38,2.02,0000 0000 0000 0000 000000
2018-03-04 00:29:38,0.23,0.47,0.00,20.92,24.05,27.28,14.16,47.66,1020.93,2040.96,3301.54,2966.73,3409.28,599.94,602.75,2.07,0000 0000 0000 0000 000000
2018-03-04 00:34:39,0.24,0.48,0.00,20.94,24.05,27.30,14.07,47.67,1020.99,2040.94,3296.57,2963.12,3405.08,599.77,602.59,2.12,0000 0000 0000 0000 000000
2018-03-04 00:39:40,0.23,0.49,0.00,20.97,24.06,27.29,14.24,47.78,1021.01,2040.82,3291.55,2959.56,3400.93,600.37,603.11,2.17,0000 0000 0000 0000 000000
2018-03-04 00:44:42,0.23,0.50,0.00,21.01,24.07,27.31,14.25,47.87,1021.01,2040.69,3286.56,2955.92,3396.69,600.09,602.76,2.22,0000 0000 0000 0000 000000
2018-03-04 00:49:43,0.25,0.51,0.00,21.02,24.07,27.30,14.05,47.83,1021.01,2040.74,3281.59,2952.35,3392.56,599.89,602.45,2.27,0000 0000 0000 0000 000000
2018-03-04 00:54:44,0.21,0.52,0.00,21.04,24.07,27.30,14.19,47.87,1021.01,2040.42,3276.53,2948.71,3388.45,600.14,602.72,2.32,0000 0000 0000 0000 000000
2018-03-04 00:59:45,0.25,0.54,0.00,21.05,24.07,27.31,14.02,47.87,1021.02,2040.34,3271.46,2945.09,3384.24,599.93,602.59,2.37,0000 0000 0000 0000 000000
2018-03-04 01:04:46,0.22,0.55,0.00,21.10,24.08,27.34,14.14,47.92,1021.02,2040.20,3266.49,2941.60,3380.05,600.23,602.63,2.42,0000 0000 0000 0000 000000
2018-03-04 01:09:48,0.24,0.56,0.00,21.14,24.10,27.34,14.13,47.91,1021.13,2040.10,3261.58,2937.95,3375.84,600.20,602.68,2.47,0000 0000 0000 0000 000000
2018-03-04 01:14:49,0.25,0.57,0.00,21.15,24.10,27.35,14.14,47.86,1021.46,2040.05,3256.60,2934.32,3371.61,600.07,602.75,2.52,0000 0000 0000 0000 000000
2018-03-04 01:19:50,0.24,0.59,0.00,21.18,24.11,27.34,14.00,47.81,1021.49,2040.02,3251.56,2930.72,3367.42,600.11,602.71,2.57,0000 0000 0000 0000 000000
2018-03-04 01:24:51,0.25,0.60,0.00,21.21,24.12,27.37,14.03,47.89,1021.49,2040.02,3246.59,2927.12,3363.25,600.05,602.62,2.62,0000 0000 0000 0000 000000
2018-03-04 01:29:53,0.24,0.61,0.00,21.25,24.14,27.36,14.02,47.83,1021.50,2040.00,3241.65,2923.50,3358.99,599.85,602.33,2.67,0000 0000 0000 0000 000000
2018-03-04 01:34:54,0.23,0.62,0.00,21.28,24.15,27.40,14.10,47.80,1021.50,2040.00,3236.95,2920.06,3354.92,600.15,602.56,2.72,0000 0000 0000 0000 000000
2018-03-04 01:39:55,0.24,0.64,0.00,21.30,24.17,27.42,13.97,47.65,1021.50,2040.00,3232.11,2916.53,3350.81,599.60,601.95,2.77,0000 0000 0000 0000 000000
2018-03-04 01:44:56,0.25,0.65,0.00,21.36,24.20,27.44,14.02,47.69,1021.50,2039.99,3227.17,2912.94,3346.63,600.03,602.27,2.82,0000 0000 0000 0000 000000
2018-03-04 01:49:58,0.25,0.66,0.00,21.41,24.22,27.47,14.15,47.63,1021.50,2039.98,3222.23,2909.34,3342.52,600.25,602.19,2.87,0000 0000 0000 0000 000000
2018-03-04 01:54:59,0.25,0.67,0.00,21.48,24.25,27.50,14.21,47.67,1021.50,2039.97,3217.27,2905.74,3338.29,600.01,602.11,2.92,0000 0000 0000 0000 000000
2018-03-04 02:00:00,0.25,0.69,0.00,21.52,24.27,27.53,14.02,47.63,1021.51,2039.94,3212.31,2902.01,3334.00,599.78,601.74,2.97,0000 0000 0000 0000 000000
2018-03-04 02:05:01,0.21,0.70,0.00,21.54,24.31,27.55,14.03,47.63,1021.52,2039.72,3207.53,2898.48,3329.83,599.97,601.78,3.02,0000 0000 0000 0000 000000
2018-03-04 02:10:03,0.20,0.71,0.00,21.62,24.33,27.58,14.13,47.61,1021.52,2039.20,3202.67,2894.93,3325.81,600.13,601.81,3.07,0000 0000 0000 0000 000000
2018-03-04 02:15:04,0.24,0.72,0.00,21.65,24.37,27.60,14.05,47.73,1021.62,2039.09,3197.82,2891.34,3321.62,600.19,601.90,3.12,0000 0000 0000 0000 000000
2018-03-04 02:20:05,0.25,0.73,0.00,21.68,24.40,27.65,13.97,47.55,1021.72,2039.01,3192.96,2887.74,3317.39,599.88,601.59,3.17,0000 0000 0000 0000 000000
2018-03-04 02:25:07,0.25,0.75,0.00,21.72,24.43,27.67,14.13,47.65,1021.73,2039.00,3188.09,2884.09,3313.22,600.27,601.83,3.22,0000 0000 0000 0000 000000
2018-03-04 02:30:08,0.25,0.76,0.00,21.76,24.47,27.71,14.07,47.54,1021.83,2038.99,3183.13,2880.45,3308.93,599.90,601.43,3.27,0000 0000 0000 0000 000000
2018-03-04 02:35:09,0.25,0.77,0.00,21.82,24.51,27.74,14.02,47.66,1021.87,2038.97,3178.06,2876.85,3304.56,599.70,601.27,3.32,0000 0000 0000 0000 000000
2018-03-04 02:40:11,0.22,0.78,0.00,21.87,24.54,27.78,14.13,47.68,1021.88,2038.60,3173.02,2873.15,3300.25,600.37,601.79,3.38,0000 0000 0000 0000 000000
2018-03-04 02:45:12,0.22,0.79,0.00,21.91,24.58,27.82,14.03,47.70,1021.81,2038.18,3168.07,2869.48,3295.97,599.81,601.04,3.43,0000 0000 0000 0000 000000
2018-03-04 02:50:13,0.24,0.81,0.00,21.97,24.61,27.86,13.97,47.59,1021.94,2038.01,3163.11,2865.85,3291.68,599.77,600.94,3.48,0000 0000 0000 0000 000000
2018-03-04 02:55:15,0.25,0.82,0.00,22.03,24.65,27.90,14.02,47.58,1021.98,2038.00,3158.16,2862.23,3287.52,600.00,601.15,3.53,0000 0000 0000 0000 000000
2018-03-04 03:00:16,0.26,0.83,0.00,22.07,24.68,27.93,14.09,47.57,1021.99,2038.00,3153.30,2858.61,3283.30,599.94,601.02,3.58,0000 0000 0000 0000 000000
2018-03-04 03:05:17,0.26,0.85,0.00,22.12,24.72,27.97,14.05,47.47,1021.99,2037.99,3148.38,2854.96,3279.01,599.98,600.84,3.63,0000 0000 0000 0000 000000
2018-03-04 03:10:18,0.24,0.86,0.00,22.17,24.76,28.01,13.99,47.47,1021.99,2037.94,3143.56,2851.39,3274.87,599.84,600.76,3.68,0000 0000 0000 0000 000000
2018-03-04 03:15:20,0.20,0.87,0.00,22.22,24.80,28.04,14.00,47.50,1022.00,2037.36,3138.56,2847.73,3270.63,600.01,600.84,3.73,0000 0000 0000 0000 000000
2018-03-04 03:20:21,0.23,0.88,0.00,22.26,24.83,28.09,14.04,47.40,1022.00,2037.03,3133.87,2844.13,3266.45,600.06,600.72,3.78,0000 0000 0000 0000 000000
2018-03-04 03:25:22,0.24,0.89,0.00,22.30,24.87,28.13,14.03,47.44,1022.28,2037.00,3129.28,2840.66,3262.54,600.26,601.07,3.83,0000 0000 0000 0000 000000
2018-03-04 03:30:24,0.24,0.90,0.00,22.32,24.91,28.17,13.94,47.47,1022.22,2036.99,3124.53,2837.14,3258.51,599.69,600.32,3.88,0000 0000 0000 0000 000000
2018-03-04 03:35:25,0.25,0.92,0.00,22.36,24.95,28.21,13.98,47.46,1022.43,2036.96,3119.77,2833.67,3254.48,600.09,600.83,3.93,0000 0000 0000 0000 000000
2018-03-04 03:40:26,0.19,0.93,0.00,22.40,24.99,28.26,13.97,47.47,1022.47,2036.53,3115.08,2830.18,3250.39,599.57,600.44,3.98,0000 0000 0000 0000 000000
2018-03-04 03:45:28,0.21,0.94,0.00,22.44,25.03,28.29,14.05,47.45,1022.48,2036.06,3110.39,2826.72,3246.32,600.23,600.80,4.03,0000 0000 0000 0000 000000
2018-03-04 03:50:29,0.25,0.95,0.00,22.49,25.07,28.35,14.02,47.39,1022.48,2036.00,3105.55,2823.15,3242.24,600.06,600.56,4.08,0000 0000 0000 0000 000000
2018-03-04 03:55:30,0.25,0.96,0.00,22.53,25.12,28.38,13.99,47.54,1022.48,2036.00,3100.73,2819.60,3238.15,599.57,599.99,4.13,0000 0000 0000 0000 000000
2018-03-04 04:00:31,0.24,0.98,0.00,22.59,25.16,28.43,14.02,47.46,1022.49,2036.00,3096.09,2816.19,3234.08,600.05,600.46,4.18,0000 0000 0000 0000 000000
2018-03-04 04:05:32,0.21,0.99,0.00,22.65,25.21,28.46,14.00,47.58,1022.51,2035.74,3091.32,2812.71,3229.88,600.16,600.34,4.23,0000 0000 0000 0000 000000
2018-03-04 04:10:34,0.20,1.00,0.00,22.69,25.26,28.51,14.00,47.48,1022.53,2035.13,3086.58,2809.18,3225.78,599.90,600.04,4.28,0000 0000 0000 0000 000000
2018-03-04 04:15:35,0.25,1.01,0.00,22.71,25.31,28.56,14.05,47.52,1022.79,2035.01,3081.87,2805.68,3221.67,600.02,600.21,4.33,0000 0000 0000 0000 000000
2018-03-04 04:20:36,0.25,1.02,0.00,22.78,25.36,28.60,13.98,47.43,1022.95,2035.00,3077.21,2802.14,3217.56,599.93,600.09,4.38,0000 0000 0000 0000 000000
2018-03-04 04:25:38,0.25,1.04,0.00,22.83,25.41,28.65,14.03,47.44,1022.96,2034.97,3072.49,2798.69,3213.52,600.09,600.00,4.43,0000 0000 0000 0000 000000
2018-03-04 04:30:39,0.21,1.05,0.00,22.88,25.46,28.68,14.02,47.42,1022.96,2034.59,3067.81,2795.15,3209.46,600.13,600.14,4.48,0000 0000 0000 0000 000000
2018-03-04 04:35:40,0.22,1.06,0.00,22.91,25.50,28.74,13.99,47.45,1022.96,2034.04,3062.94,2791.51,3205.24,599.90,599.93,4.53,0000 0000 0000 0000 000000
2018-03-04 04:40:42,0.25,1.07,0.00,22.96,25.55,28.77,14.01,47.39,1022.96,2034.00,3058.24,2788.02,3201.14,600.32,600.19,4.58,0000 0000 0000 0000 000000
2018-03-04 04:45:43,0.26,1.08,0.00,23.00,25.60,28.83,14.05,47.53,1022.97,2033.98,3053.43,2784.41,3197.08,599.88,599.57,4.63,0000 0000 0000 0000 000000
2018-03-04 04:50:44,0.25,1.10,0.00,23.06,25.65,28.87,13.96,47.44,1022.98,2033.89,3048.65,2780.81,3192.93,599.33,598.98,4.68,0000 0000 0000 0000 000000
2018-03-04 04:55:45,0.20,1.11,0.00,23.09,25.70,28.92,14.01,47.39,1022.98,2033.23,3043.82,2777.23,3188.70,600.13,599.71,4.73,0000 0000 0000 0000 000000
2018-03-04 05:00:46,0.25,1.12,0.00,23.13,25.75,28.97,13.98,47.45,1023.00,2033.01,3039.03,2773.64,3184.56,600.01,599.50,4.78,0000 0000 0000 0000 000000
2018-03-04 05:05:47,0.27,1.13,0.00,23.17,25.81,29.02,13.91,47.48,1023.11,2033.00,3034.16,2770.04,3180.43,599.60,599.08,4.83,0000 0000 0000 0000 000000
2018-03-04 05:10:48,0.27,1.15,0.00,23.22,25.85,29.07,13.99,47.35,1023.25,2032.97,3029.27,2766.42,3176.19,600.24,599.74,4.88,0000 0000 0000 0000 000000
2018-03-04 05:15:50,0.22,1.16,0.00,23.26,25.90,29.11,13.93,47.41,1023.38,2032.62,3024.36,2762.77,3171.95,599.98,599.45,4.93,0000 0000 0000 0000 000000
2018-03-04 05:20:51,0.23,1.17,0.00,23.27,25.95,29.16,14.04,47.51,1023.44,2032.05,3019.49,2759.13,3167.74,600.11,599.60,4.98,0000 0000 0000 0000 000000
2018-03-04 05:25:52,0.27,1.18,0.00,23.31,26.00,29.21,13.96,47.48,1023.45,2032.00,3014.71,2755.54,3163.49,599.94,599.33,5.03,0000 0000 0000 0000 000000
2018-03-04 05:30:53,0.26,1.20,0.00,23.34,26.05,29.25,13.97,47.45,1023.45,2032.00,3009.86,2752.00,3159.33,600.03,599.37,5.08,0000 0000 0000 0000 000000
2018-03-04 05:35:55,0.25,1.21,0.00,23.39,26.10,29.30,14.03,47.55,1023.45,2031.98,3005.24,2748.59,3155.25,600.09,599.36,5.13,0000 0000 0000 0000 000000
2018-03-04 05:40:56,0.24,1.22,0.00,23.42,26.15,29.35,13.95,47.48,1023.45,2031.77,3000.53,2745.08,3151.23,599.98,599.19,5.18,0000 0000 0000 0000 000000
2018-03-04 05:45:57,0.20,1.23,0.00,23.44,26.20,29.39,13.94,47.62,1023.44,2031.18,2995.89,2741.66,3147.15,599.75,598.99,5.23,0000 0000 0000 0000 000000
2018-03-04 05:50:59,0.26,1.24,0.00,23.47,26.25,29.43,13.97,47.62,1023.45,2031.00,2991.12,2738.09,3143.04,600.09,599.20,5.28,0000 0000 0000 0000 000000
2018-03-04 05:56:00,0.25,1.26,0.00,23.49,26.30,29.47,13.95,47.65,1023.45,2030.99,2986.59,2734.66,3139.01,599.57,598.66,5.33,0000 0000 0000 0000 000000
2018-03-04 06:01:02,0.23,1.27,0.00,23.52,26.34,29.52,13.93,47.58,1023.45,2030.78,2981.91,2731.13,3135.02,599.75,598.76,5.38,0000 0000 0000 0000 000000
2018-03-04 06:06:03,0.20,1.28,0.00,23.56,26.39,29.57,14.00,47.51,1023.45,2030.14,2977.14,2727.63,3131.03,600.04,598.94,5.43,0000 0000 0000 0000 000000
2018-03-04 06:11:04,0.27,1.30,0.00,23.60,26.43,29.59,13.94,47.57,1023.45,2030.01,2972.29,2724.07,3126.91,599.75,598.55,5.48,0000 0000 0000 0000 000000
2018-03-04 06:16:05,0.27,1.31,0.00,23.65,26.47,29.65,13.99,47.59,1023.46,2030.00,2967.46,2720.45,3122.75,599.98,598.73,5.53,0000 0000 0000 0000 000000
2018-03-04 06:21:06,0.27,1.32,0.00,23.68,26.51,29.69,13.97,47.57,1023.50,2029.97,2962.69,2716.87,3118.62,599.99,598.68,5.58,0000 0000 0000 0000 000000
2018-03-04 06:26:07,0.25,1.34,0.00,23.72,26.56,29.74,14.07,47.53,1023.69,2029.92,2957.99,2713.40,3114.65,600.43,599.06,5.63,0000 0000 0000 0000 000000
2018-03-04 06:31:08,0.20,1.35,0.00,23.74,26.59,29.78,13.98,47.42,1023.83,2029.27,2953.26,2709.89,3110.53,599.89,598.78,5.68,0000 0000 0000 0000 000000
2018-03-04 06:36:09,0.26,1.36,0.00,23.77,26.63,29.82,13.94,47.47,1023.87,2029.02,2948.47,2706.32,3106.38,599.67,598.43,5.73,0000 0000 0000 0000 000000
2018-03-04 06:41:11,0.27,1.37,0.00,23.81,26.67,29.84,13.97,47.42,1023.91,2029.00,2943.88,2702.81,3102.09,599.96,598.64,5.79,0000 0000 0000 0000 000000
2018-03-04 06:46:12,0.28,1.39,0.00,23.83,26.71,29.89,13.89,47.48,1023.92,2028.97,2939.00,2699.15,3097.88,599.75,598.38,5.84,0000 0000 0000 0000 000000
2018-03-04 06:51:13,0.25,1.40,0.00,23.86,26.75,29.93,13.97,47.55,1023.92,2028.85,2934.26,2695.63,3093.96,599.85,598.57,5.89,0000 0000 0000 0000 000000
2018-03-04 06:56:15,0.18,1.41,0.00,23.90,26.79,29.97,14.00,47.58,1023.94,2028.27,2929.74,2692.28,3090.07,600.00,598.52,5.94,0000 0000 0000 0000 000000
2018-03-04 07:01:16,0.23,1.42,0.00,23.91,26.83,30.01,14.00,47.44,1023.94,2028.03,2925.47,2689.15,3086.38,599.74,598.32,5.99,0000 0000 0000 0000 000000
2018-03-04 07:06:18,0.25,1.43,0.00,23.94,26.87,30.04,14.03,47.49,1023.94,2028.00,2921.12,2685.99,3082.60,600.15,598.51,6.04,0000 0000 0000 0000 000000
2018-03-04 07:11:19,0.26,1.45,0.00,23.96,26.91,30.09,13.98,47.46,1023.94,2028.00,2916.68,2682.72,3078.77,600.04,598.37,6.09,0000 0000 0000 0000 000000
2018-03-04 07:16:21,0.25,1.46,0.00,24.01,26.95,30.12,14.01,47.58,1023.94,2027.96,2912.35,2679.47,3075.00,600.43,598.71,6.14,0000 0000 0000 0000 000000
2018-03-04 07:21:22,0.20,1.47,0.00,24.04,26.99,30.16,14.04,47.52,1023.94,2027.59,2907.98,2676.23,3071.29,600.02,598.26,6.19,0000 0000 0000 0000 000000
2018-03-04 07:26:23,0.21,1.48,0.00,24.07,27.02,30.21,14.02,47.43,1023.94,2027.09,2903.77,2673.07,3067.63,599.47,597.73,6.24,0000 0000 0000 0000 000000
2018-03-04 07:31:24,0.24,1.49,0.00,24.11,27.06,30.24,13.92,47.40,1023.94,2027.00,2899.55,2669.98,3064.03,599.75,597.84,6.29,0000 0000 0000 0000 000000
2018-03-04 07:36:25,0.24,1.51,0.00,24.11,27.10,30.28,13.95,47.45,1023.94,2026.99,2895.36,2666.89,3060.48,600.12,598.20,6.34,0000 0000 0000 0000 000000
2018-03-04 07:41:27,0.25,1.52,0.00,24.13,27.13,30.30,14.02,47.50,1023.96,2026.98,2891.13,2663.74,3056.85,600.13,598.26,6.39,0000 0000 0000 0000 000000
2018-03-04 07:46:28,0.23,1.53,0.00,24.17,27.17,30.33,13.99,47.38,1023.96,2026.93,2887.07,2660.73,3053.32,599.75,597.78,6.44,0000 0000 0000 0000 000000
2018-03-04 07:51:29,0.17,1.54,0.00,24.18,27.20,30.37,14.06,47.48,1024.14,2026.49,2883.09,2657.77,3049.85,600.45,598.50,6.49,0000 0000 0000 0000 000000
2018-03-04 07:56:31,0.21,1.55,0.00,24.20,27.23,30.40,13.97,47.46,1024.37,2026.05,2879.18,2654.74,3046.20,599.95,598.04,6.54,0000 0000 0000 0000 000000
2018-03-04 08:01:32,0.23,1.56,0.00,24.22,27.26,30.43,13.96,47.41,1024.41,2026.00,2875.30,2651.77,3042.73,599.79,598.04,6.59,0000 0000 0000 0000 000000
2018-03-04 08:06:33,0.24,1.57,0.00,24.26,27.29,30.48,14.03,47.38,1024.43,2026.00,2871.22,2648.73,3039.23,600.39,598.30,6.64,0000 0000 0000 0000 000000
2018-03-04 08:11:34,0.23,1.59,0.00,24.28,27.31,30.50,13.89,47.23,1024.43,2025.99,2867.18,2645.77,3035.79,599.70,597.66,6.69,0000 0000 0000 0000 000000
2018-03-04 08:16:36,0.23,1.60,0.00,24.30,27.35,30.53,13.98,47.21,1024.43,2025.95,2863.14,2642.81,3032.37,600.18,598.10,6.74,0000 0000 0000 0000 000000
2018-03-04 08:21:37,0.22,1.61,0.00,24.32,27.37,30.56,13.93,47.30,1024.43,2025.81,2859.06,2639.83,3028.87,600.09,598.03,6.79,0000 0000 0000 0000 000000
2018-03-04 08:26:38,0.18,1.62,0.00,24.31,27.40,30.59,13.98,47.30,1024.43,2025.26,2855.08,2636.83,3025.34,600.11,598.13,6.84,0000 0000 0000 0000 000000
2018-03-04 08:31:40,0.22,1.63,0.00,24.32,27.42,30.63,14.00,47.36,1024.43,2025.02,2851.07,2633.84,3021.89,600.13,598.12,6.89,0000 0000 0000 0000 000000
2018-03-04 08:36:41,0.23,1.64,0.00,24.34,27.45,30.65,13.95,47.36,1024.46,2025.00,2847.23,2630.99,3018.45,600.12,598.05,6.94,0000 0000 0000 0000 000000
2018-03-04 08:41:43,0.23,1.65,0.00,24.35,27.47,30.67,13.94,47.27,1024.49,2025.00,2843.41,2628.09,3014.91,600.03,597.89,6.99,0000 0000 0000 0000 000000
2018-03-04 08:46:44,0.24,1.66,0.00,24.36,27.49,30.68,13.96,47.13,1024.51,2024.98,2839.42,2625.12,3011.42,599.87,597.82,7.04,0000 0000 0000 0000 000000
2018-03-04 08:51:45,0.23,1.68,0.00,24.36,27.51,30.72,13.99,47.29,1024.76,2024.98,2835.16,2622.28,3008.21,599.87,598.00,7.09,0000 0000 0000 0000 000000
2018-03-04 08:56:46,0.22,1.69,0.00,24.37,27.52,30.74,14.02,47.29,1024.90,2024.89,2831.28,2619.39,3004.87,600.13,598.33,7.14,0000 0000 0000 0000 000000
2018-03-04 09:01:47,0.19,1.70,0.00,24.37,27.54,30.78,14.05,47.27,1024.92,2024.37,2827.11,2616.37,3001.38,600.10,598.24,7.19,0000 0000 0000 0000 000000
2018-03-04 09:06:48,0.22,1.71,0.00,24.39,27.55,30.79,13.97,47.18,1024.92,2024.10,2823.33,2613.43,2997.73,600.05,598.17,7.24,0000 0000 0000 0000 000000
2018-03-04 09:11:50,0.24,1.72,0.00,24.40,27.57,30.81,14.02,47.24,1024.93,2024.04,2819.22,2610.41,2994.29,600.00,598.09,7.29,0000 0000 0000 0000 000000
2018-03-04 09:16:51,0.23,1.73,0.00,24.40,27.59,30.83,14.01,47.20,1024.95,2024.00,2815.21,2607.46,2990.87,600.19,598.25,7.34,0000 0000 0000 0000 000000
2018-03-04 09:21:52,0.24,1.75,0.00,24.40,27.60,30.84,13.94,47.16,1024.94,2024.00,2811.25,2604.52,2987.46,599.88,597.95,7.39,0000 0000 0000 0000 000000
2018-03-04 09:26:54,0.24,1.76,0.00,24.38,27.61,30.86,14.02,47.16,1024.97,2024.00,2807.26,2601.59,2984.10,600.10,598.18,7.44,0000 0000 0000 0000 000000
2018-03-04 09:31:55,0.24,1.77,0.00,24.37,27.62,30.88,14.01,47.26,1024.93,2024.00,2803.26,2598.73,2980.79,599.96,598.10,7.49,0000 0000 0000 0000 000000
2018-03-04 09:36:56,0.24,1.78,0.00,24.37,27.63,30.89,13.98,47.28,1024.93,2024.00,2799.27,2595.81,2977.41,600.28,598.41,7.54,0000 0000 0000 0000 000000
2018-03-04 09:41:57,0.23,1.79,0.00,24.37,27.65,30.91,14.03,47.24,1024.94,2024.00,2795.47,2592.94,2973.98,600.22,598.22,7.59,0000 0000 0000 0000 000000
2018-03-04 09:46:58,0.24,1.81,0.00,24.37,27.65,30.91,13.94,47.30,1024.98,2023.97,2791.42,2589.97,2970.57,600.11,598.22,7.64,0000 0000 0000 0000 000000
2018-03-04 09:52:00,0.24,1.82,0.00,24.38,27.67,30.93,13.94,47.21,1025.04,2023.94,2787.35,2586.94,2967.11,599.86,598.07,7.69,0000 0000 0000 0000 000000
2018-03-04 09:57:01,0.23,1.83,0.00,24.38,27.67,30.93,13.93,47.27,1024.99,2023.78,2783.32,2583.97,2963.51,599.55,597.88,7.74,0000 0000 0000 0000 000000
2018-03-04 10:02:03,0.24,1.85,0.00,24.37,27.67,30.95,14.00,47.38,1025.26,2023.73,2779.18,2580.99,2960.05,600.16,598.47,7.79,0000 0000 0000 0000 000000
2018-03-04 10:07:04,0.24,1.86,0.00,24.36,27.69,30.95,13.96,47.23,1025.40,2023.43,2774.70,2577.75,2956.38,599.86,598.32,7.84,0000 0000 0000 0000 000000
2018-03-04 10:12:05,0.25,1.87,0.00,24.37,27.70,30.97,14.09,47.34,1025.40,2023.14,2770.21,2574.45,2952.60,600.24,598.61,7.89,0000 0000 0000 0000 000000
2018-03-04 10:17:07,0.25,1.88,0.00,24.35,27.70,30.97,14.00,47.26,1025.41,2023.06,2765.84,2571.24,2948.88,600.17,598.67,7.94,0000 0000 0000 0000 000000
2018-03-04 10:22:08,0.27,1.90,0.00,24.35,27.70,30.97,13.92,47.23,1025.42,2023.01,2761.47,2568.02,2945.11,599.92,598.46,7.99,0000 0000 0000 0000 000000
2018-03-04 10:27:09,0.27,1.91,0.00,24.32,27.71,30.98,13.96,47.17,1025.42,2023.01,2756.98,2564.76,2941.40,599.98,598.50,8.04,0000 0000 0000 0000 000000
2018-03-04 10:32:10,0.28,1.92,0.00,24.32,27.72,30.98,14.05,47.32,1025.41,2023.00,2752.46,2561.45,2937.59,600.41,598.93,8.10,0000 0000 0000 0000 000000
2018-03-04 10:37:12,0.27,1.94,0.00,24.30,27.72,30.99,13.99,47.38,1025.41,2023.00,2748.00,2558.32,2933.79,599.80,598.33,8.15,0000 0000 0000 0000 000000
2018-03-04 10:42:13,0.27,1.95,0.00,24.30,27.72,30.98,13.97,47.25,1025.41,2023.00,2743.61,2555.14,2929.96,600.19,598.84,8.20,0000 0000 0000 0000 000000
2018-03-04 10:47:14,0.27,1.97,0.00,24.30,27.72,30.98,13.96,47.33,1025.41,2023.00,2739.30,2551.94,2926.22,600.03,598.60,8.25,0000 0000 0000 0000 000000
2018-03-04 10:52:16,0.27,1.98,0.00,24.29,27.73,30.99,13.97,47.37,1025.41,2023.00,2734.82,2548.80,2922.71,599.70,598.28,8.30,0000 0000 0000 0000 000000
2018-03-04 10:57:17,0.26,1.99,0.00,24.27,27.73,30.98,14.01,47.38,1025.43,2023.00,2730.56,2545.70,2919.13,599.62,598.39,8.35,0000 0000 0000 0000 000000
2018-03-04 11:02:18,0.26,2.01,0.00,24.26,27.74,30.98,14.01,47.33,1025.42,2023.00,2726.57,2542.60,2915.39,600.02,598.61,8.40,0000 0000 0000 0000 000000
2018-03-04 11:07:19,0.26,2.02,0.00,24.26,27.75,30.99,13.96,47.30,1025.43,2023.00,2722.41,2539.54,2911.84,599.74,598.39,8.45,0000 0000 0000 0000 000000
2018-03-04 11:12:20,0.26,2.03,0.00,24.24,27.75,30.98,14.02,47.33,1025.44,2022.99,2718.27,2536.51,2908.26,599.84,598.54,8.50,0000 0000 0000 0000 000000
2018-03-04 11:17:22,0.26,2.05,0.00,24.25,27.75,30.98,13.99,47.35,1025.45,2022.99,2714.02,2533.42,2904.71,600.12,598.81,8.55,0000 0000 0000 0000 000000
2018-03-04 11:22:23,0.26,2.06,0.00,24.23,27.75,30.98,14.06,47.30,1025.41,2022.98,2710.03,2530.44,2901.13,600.12,598.79,8.60,0000 0000 0000 0000 000000
2018-03-04 11:27:24,0.27,2.07,0.00,24.20,27.75,30.97,14.02,47.36,1025.42,2022.96,2705.92,2527.35,2897.50,600.28,599.05,8.65,0000 0000 0000 0000 000000
2018-03-04 11:32:26,0.26,2.09,0.00,24.18,27.74,30.98,14.03,47.33,1025.42,2022.95,2701.75,2524.33,2894.12,600.02,598.84,8.70,0000 0000 0000 0000 000000
2018-03-04 11:37:27,0.26,2.10,0.00,24.16,27.73,30.97,13.98,47.24,1025.43,2022.97,2697.72,2521.39,2890.70,599.77,598.55,8.75,0000 0000 0000 0000 000000
2018-03-04 11:42:28,0.26,2.11,0.00,24.14,27.72,30.99,14.04,47.25,1025.60,2022.98,2693.52,2518.41,2887.28,600.22,599.24,8.80,0000 0000 0000 0000 000000
2018-03-04 11:47:29,0.25,2.13,0.00,24.13,27.72,30.97,14.02,47.23,1025.63,2022.96,2689.37,2515.38,2883.89,599.94,598.98,8.85,0000 0000 0000 0000 000000
2018-03-04 11:52:31,0.25,2.14,0.00,24.11,27.72,30.96,13.97,47.23,1025.43,2022.97,2685.66,2512.51,2880.48,599.73,598.69,8.90,0000 0000 0000 0000 000000
2018-03-04 11:57:32,0.26,2.15,0.00,24.11,27.72,30.93,14.10,47.27,1025.42,2022.98,2681.63,2509.59,2877.27,600.20,599.07,8.95,0000 0000 0000 0000 000000
2018-03-04 12:02:33,0.24,2.16,0.00,24.09,27.70,30.94,13.96,47.31,1025.44,2022.95,2677.56,2506.62,2873.92,600.13,599.11,9.00,0000 0000 0000 0000 000000
2018-03-04 12:07:34,0.25,2.18,0.00,24.07,27.70,30.94,14.01,47.33,1025.43,2022.98,2673.75,2503.76,2870.52,600.01,599.00,9.05,0000 0000 0000 0000 000000
2018-03-04 12:12:35,0.26,2.19,0.00,24.05,27.70,30.94,14.03,47.30,1025.42,2022.97,2669.82,2500.91,2867.18,600.00,599.06,9.10,0000 0000 0000 0000 000000
2018-03-04 12:17:36,0.25,2.20,0.00,24.03,27.69,30.92,14.04,47.34,1025.45,2022.97,2665.93,2498.02,2863.80,600.03,599.10,9.15,0000 0000 0000 0000 000000
2018-03-04 12:22:38,0.27,2.22,0.00,24.02,27.67,30.92,14.05,47.52,1025.51,2022.97,2661.69,2495.12,2860.44,600.37,599.64,9.20,0000 0000 0000 0000 000000
2018-03-04 12:27:39,0.25,2.23,0.00,24.00,27.67,30.90,14.04,47.39,1025.60,2022.97,2657.91,2492.27,2856.80,600.19,599.44,9.25,0000 0000 0000 0000 000000
2018-03-04 12:32:40,0.25,2.24,0.00,23.97,27.67,30.88,14.04,47.40,1025.78,2022.96,2654.11,2489.39,2853.39,600.20,599.62,9.30,0000 0000 0000 0000 000000
2018-03-04 12:37:42,0.25,2.25,0.00,23.95,27.65,30.88,13.94,47.45,1025.75,2022.96,2650.12,2486.48,2850.09,599.94,599.44,9.35,0000 0000 0000 0000 000000
2018-03-04 12:42:43,0.26,2.27,0.00,23.93,27.65,30.87,14.04,47.40,1025.56,2022.96,2646.03,2483.57,2846.82,600.30,599.75,9.40,0000 0000 0000 0000 000000
2018-03-04 12:47:44,0.27,2.28,0.00,23.91,27.63,30.86,14.06,47.56,1025.45,2022.98,2641.90,2480.64,2843.51,600.08,599.47,9.45,0000 0000 0000 0000 000000
2018-03-04 12:52:46,0.27,2.29,0.00,23.89,27.62,30.84,14.07,47.59,1025.42,2022.99,2637.78,2477.71,2840.18,600.27,599.68,9.50,0000 0000 0000 0000 000000
2018-03-04 12:57:47,0.26,2.31,0.00,23.88,27.61,30.83,14.13,47.62,1025.42,2022.99,2633.84,2474.79,2836.80,600.47,599.81,9.55,0000 0000 0000 0000 000000
2018-03-04 13:02:48,0.26,2.32,0.00,23.86,27.60,30.81,14.06,47.53,1025.44,2022.99,2629.94,2471.89,2833.35,600.03,599.48,9.60,0000 0000 0000 0000 000000